Weather History for KIEN - November, 2012

Change the Weather History Date:

Friday, November 9, 2012

  Actual Average Record
Temperature  
Mean Temperature 39 °F 37 °F  
Max Temperature 47 °F 52 °F - ()
Min Temperature 31 °F 23 °F - ()
Degree Days  
Heating Degree Days 26 28  
Month to date heating degree days 199 232  
Since 1 July heating degree days 946 987  
Cooling Degree Days 0 0  
Month to date cooling degree days 0 0  
Year to date cooling degree days 1103 717  
Moisture  
Dew Point 32 °F    
Average Humidity 80    
Maximum Humidity 100    
Minimum Humidity 60    
Precipitation  
Precipitation 0.00 in 0.02 in - ()
Month to date precipitation T 0.23  
Year to date precipitation 10.23 16.83  
Sea Level Pressure  
Sea Level Pressure 29.79 in    
Wind  
Wind Speed 9 mph (ESE)    
Max Wind Speed 18 mph    
Max Gust Speed 23 mph    
Visibility 8 miles    
Events      
T = Trace of Precipitation, MM = Missing Value Source: NWS Daily Summary

Daily Weather History Graph

Daily Weather History Graph

Search for Another Location

Airport or City:

Trip Planner

Search our weather history database for the weather conditions in past years. The results will help you decide how hot, cold, wet, or windy it might be!

Date:

Astronomy

Nov. 09, 2012 Rise Set
Actual Time 6:35 AM MST 4:31 PM MST
Civil Twilight 6:05 AM MST 5:01 PM MST
Nautical Twilight 5:31 AM MST 5:35 PM MST
Astronomical Twilight 4:58 AM MST 6:09 PM MST
Moon 1:29 AM MST (11/9) 1:52 PM MST (11/9)
Length of Visible Light 10h 56m
Length of Day
9h 56m
Waning Crescent, 22% of the Moon is Illuminated
Nov 9
Waning Crescent
Nov 13
New
Nov 20
First Quarter
Nov 28
Full
Dec 6
Last Quarter

Hourly Weather History & Observations

Time (MST) Temp. Windchill Dew Point Humidity Pressure Visibility Wind Dir Wind Speed Gust Speed Precip Events Conditions
12:15 AM 30.2 °F 21.9 °F 30.2 °F 100% 29.88 in 5.0 mi East 9.2 mph - N/A   Overcast
12:52 AM 30.9 °F 22.8 °F 30.0 °F 96% 29.90 in 5.0 mi East 9.2 mph - N/A   Overcast
1:18 AM 32.0 °F 28.7 °F 30.2 °F 93% 29.86 in 6.0 mi East 3.5 mph - N/A   Overcast
1:52 AM 32.0 °F 24.2 °F 30.0 °F 92% 29.88 in 6.0 mi East 9.2 mph - N/A   Overcast
2:37 AM 32.0 °F 25.6 °F 30.2 °F 93% 29.86 in 6.0 mi East 6.9 mph - N/A   Overcast
2:52 AM 32.0 °F 24.2 °F 30.0 °F 92% 29.88 in 6.0 mi East 9.2 mph - N/A   Overcast
3:52 AM 32.0 °F 25.6 °F 30.0 °F 92% 29.88 in 4.0 mi East 6.9 mph - N/A   Overcast
4:42 AM 30.2 °F 21.9 °F 30.2 °F 100% 29.84 in 2.5 mi East 9.2 mph - N/A   Overcast
4:52 AM 30.9 °F 21.7 °F 30.0 °F 96% 29.89 in 4.0 mi East 11.5 mph - N/A   Overcast
5:52 AM 32.0 °F 24.2 °F 30.0 °F 92% 29.90 in 6.0 mi ESE 9.2 mph - N/A   Overcast
6:52 AM 32.0 °F 24.2 °F 30.0 °F 92% 29.90 in 4.0 mi SE 9.2 mph - N/A   Overcast
7:52 AM 33.1 °F 26.1 °F 30.9 °F 92% 29.90 in 8.0 mi SE 8.1 mph - N/A   Overcast
8:52 AM 34.0 °F 25.5 °F 30.9 °F 89% 29.89 in 9.0 mi ESE 11.5 mph - N/A   Overcast
9:41 AM 33.8 °F 27.0 °F 30.2 °F 87% 29.82 in 10.0 mi SE 8.1 mph - N/A   Overcast
9:52 AM 34.0 °F 26.6 °F 30.9 °F 89% 29.89 in 10.0 mi SE 9.2 mph - N/A   Overcast
10:52 AM 37.0 °F 32.4 °F 32.0 °F 82% 29.85 in 10.0 mi East 5.8 mph - N/A   Overcast
11:29 AM 39.2 °F 35.0 °F 33.8 °F 81% 29.76 in 10.0 mi East 5.8 mph - N/A   Overcast
11:52 AM 41.0 °F 34.7 °F 33.1 °F 73% 29.78 in 10.0 mi ESE 10.4 mph - N/A   Mostly Cloudy
12:01 PM 42.8 °F 35.8 °F 33.8 °F 70% 29.72 in 10.0 mi ESE 13.8 mph - N/A   Scattered Clouds
12:52 PM 44.1 °F 37.7 °F 34.0 °F 68% 29.73 in 10.0 mi East 12.7 mph 18.4 mph N/A   Clear
1:52 PM 46.0 °F 39.9 °F 34.0 °F 63% 29.71 in 10.0 mi ENE 13.8 mph - N/A   Clear
2:52 PM 43.0 °F 35.4 °F 33.1 °F 68% 29.70 in 10.0 mi East 16.1 mph - N/A   Clear
3:52 PM 39.0 °F 32.3 °F 32.0 °F 76% 29.72 in 10.0 mi East 10.4 mph - N/A   Clear
4:27 PM 37.4 °F 29.3 °F 32.0 °F 81% 29.66 in 10.0 mi East 12.7 mph 18.4 mph N/A   Mostly Cloudy
4:52 PM 36.0 °F 29.0 °F 32.0 °F 86% 29.73 in 10.0 mi East 9.2 mph - N/A   Overcast
5:52 PM 35.1 °F 27.9 °F 32.0 °F 89% 29.74 in 9.0 mi ESE 9.2 mph - N/A   Overcast
6:30 PM 35.6 °F 26.2 °F 32.0 °F 87% 29.66 in 8.0 mi ESE 15.0 mph - N/A   Overcast
6:52 PM 35.1 °F 29.3 °F 33.1 °F 92% 29.73 in 8.0 mi ESE 6.9 mph - N/A   Overcast
7:52 PM 35.1 °F 30.1 °F 33.1 °F 92% 29.71 in 8.0 mi ESE 5.8 mph - N/A   Overcast
8:52 PM 36.0 °F 29.6 °F 34.0 °F 93% 29.71 in 9.0 mi ESE 8.1 mph - N/A   Overcast
9:34 PM 35.6 °F 29.9 °F 33.8 °F 93% 29.64 in 10.0 mi ESE 6.9 mph - N/A   Overcast
9:52 PM 36.0 °F 31.1 °F 33.1 °F 89% 29.70 in 10.0 mi East 5.8 mph - N/A   Overcast
10:52 PM 36.0 °F 32.1 °F 34.0 °F 93% 29.68 in 9.0 mi East 4.6 mph - N/A   Overcast
11:52 PM 35.1 °F 31.0 °F 33.1 °F 92% 29.64 in 8.0 mi East 4.6 mph - N/A   Overcast